Terug naar catalogus

PEGASUS DEB

ActiefPO
NORAD 24996·DEBRIS·🇺🇸 United States

Gelanceerd May 19, 1994 vanaf Vandenberg Space Force Base

Loading…

Volgende Passages (komende 24 uur)

TLE

VersSource: Space-Track

Epoch: Sep 14, 2026, 11:54 UTC

1 24996U 94029ADD 26257.49615935  .00006970  00000-0  83682-3 0  9990
2 24996  82.1638 286.0087 0185678 134.7417 226.9078 14.72240575510639

Volg PEGASUS DEB in realtime met AllMySat

Download on the App Store